FW1093 Weather Reports


time (UTC)temp
C
wind
direction
speed
KPH
gust
KPH
rain 1hr
cm
rain 24hr
cm
rain mn
cm
humidity
%
barometer
mb
20260506032319 16 141 1.6 6.4 0.00 0.00 0.00 72 1010.9
20260506031327 16 128 0.0 4.8 0.00 0.00 0.00 72 1010.9
20260506030317 16 198 0.0 6.4 0.00 0.00 0.00 72 1010.9
20260506025327 16 184 0.0 1.6 0.00 0.00 0.00 72 1011.1
20260506024317 16 182 0.0 6.4 0.00 0.00 0.00 71 1011.1
20260506023326 16 117 0.0 0.0 0.00 0.00 0.00 72 1011.0
20260506022314 16 167 0.0 3.2 0.00 0.00 0.00 71 1011.0
20260506021331 16 142 0.0 1.6 0.00 0.00 0.00 71 1011.0
20260506020321 16 167 0.0 1.6 0.00 0.00 0.00 71 1011.0
20260506015357 16 207 0.0 3.2 0.00 0.00 0.00 70 1010.8
20260506014324 16 156 0.0 3.2 0.00 0.00 0.00 69 1010.8
20260506013313 16 152 0.0 3.2 0.00 0.00 0.00 69 1010.6
20260506012330 16 147 0.0 1.6 0.00 0.00 0.00 69 1010.5
20260506011315 17 192 0.0 3.2 0.00 0.00 0.00 68 1010.3
20260506010331 17 174 0.0 1.6 0.00 0.00 0.00 67 1010.3
20260506005319 17 141 0.0 0.0 0.00 0.00 0.00 66 1010.2
20260506004329 17 181 0.0 4.8 0.00 0.00 0.00 65 1010.2
20260506003336 17 217 0.0 3.2 0.00 0.00 0.00 64 1010.0
20260506002326 18 122 0.0 3.2 0.00 0.00 0.00 63 1009.8
20260506001344 18 128 0.0 3.2 0.00 0.00 0.00 62 1009.6
20260506000330 18 138 0.0 6.4 0.00 0.00 0.00 61 1009.6
20260505235323 18 140 0.0 3.2 0.00 0.00 0.00 61 1009.4
20260505234338 19 93 0.0 1.6 0.00 0.00 0.00 61 1009.2
20260505233346 19 136 1.6 4.8 0.00 0.00 0.00 60 1009.3
20260505232315 20 195 0.0 6.4 0.00 0.00 0.00 59 1009.0
20260505231325 20 234 1.6 6.4 0.00 0.00 0.00 58 1008.9
20260505230314 20 158 1.6 9.7 0.00 0.00 0.00 57 1008.8
20260505225329 21 167 3.2 6.4 0.00 0.00 0.00 56 1008.7
20260505224318 21 335 0.0 6.4 0.00 0.00 0.00 56 1008.6
20260505223328 22 108 1.6 8.0 0.00 0.00 0.00 54 1008.6
20260505222317 22 256 0.0 4.8 0.00 0.00 0.00 53 1008.7
20260505221333 22 250 0.0 8.0 0.00 0.00 0.00 52 1008.7
20260505220341 23 108 0.0 8.0 0.00 0.00 0.00 54 1008.8
20260505215337 22 260 0.0 6.4 0.00 0.00 0.00 53 1008.8
20260505214327 22 131 1.6 4.8 0.00 0.00 0.00 54 1008.7
20260505213315 23 96 0.0 4.8 0.00 0.00 0.00 54 1008.6
20260505212323 23 200 3.2 9.7 0.00 0.00 0.00 52 1008.6
20260505211313 23 134 1.6 9.7 0.00 0.00 0.00 53 1008.5
20260505210348 23 136 1.6 6.4 0.00 0.00 0.00 51 1008.2
20260505205314 23 153 1.6 11.3 0.00 0.00 0.00 52 1008.6
20260505204331 23 169 1.6 6.4 0.00 0.00 0.00 51 1008.5
20260505203319 23 185 1.6 14.5 0.00 0.00 0.00 52 1008.6
20260505202334 23 198 1.6 8.0 0.00 0.00 0.00 52 1008.6
20260505201323 24 198 1.6 8.0 0.00 0.00 0.00 51 1008.6
20260505200313 24 261 0.0 4.8 0.00 0.00 0.00 51 1008.7
20260505195328 24 217 0.0 3.2 0.00 0.00 0.00 50 1008.8
20260505194314 24 112 1.6 8.0 0.00 0.00 0.00 50 1008.9
20260505193330 25 142 3.2 8.0 0.00 0.00 0.00 48 1008.8
20260505192319 25 117 3.2 8.0 0.00 0.00 0.00 49 1008.9
20260505191315 25 183 0.0 8.0 0.00 0.00 0.00 50 1009.2
20260505190330 25 124 3.2 9.7 0.00 0.00 0.00 47 1009.3
20260505185316 26 261 1.6 8.0 0.00 0.00 0.00 48 1009.4
20260505184325 26 121 3.2 4.8 0.00 0.00 0.00 47 1009.5
20260505183315 26 110 3.2 9.7 0.00 0.00 0.00 48 1009.5
20260505182330 26 108 1.6 6.4 0.00 0.00 0.00 47 1009.5
20260505181318 26 278 1.6 8.0 0.00 0.00 0.00 46 1009.4
20260505180333 26 124 1.6 6.4 0.00 0.00 0.00 45 1009.5
20260505175322 26 180 1.6 6.4 0.00 0.00 0.00 48 1009.4
20260505174331 26 117 1.6 6.4 0.00 0.00 0.00 47 1009.5
20260505173323 26 247 0.0 9.7 0.00 0.00 0.00 50 1009.5
20260505172312 26 106 1.6 4.8 0.00 0.00 0.00 48 1009.6
20260505171329 26 186 3.2 8.0 0.00 0.00 0.00 48 1009.6
20260505170345 25 167 1.6 6.4 0.00 0.00 0.00 46 1009.6
20260505165312 25 120 1.6 9.7 0.00 0.00 0.00 48 1009.6
20260505164326 25 253 1.6 8.0 0.00 0.00 0.00 48 1009.8
20260505163315 25 320 1.6 4.8 0.00 0.00 0.00 47 1009.8
20260505162330 25 206 0.0 6.4 0.00 0.00 0.00 51 1010.4
20260505161319 25 163 1.6 4.8 0.00 0.00 0.00 51 1010.3
20260505160327 24 148 0.0 6.4 0.00 0.00 0.00 51 1010.4
20260505153314 23 123 0.0 3.2 0.00 0.00 0.00 51 1010.7
20260505152329 23 264 0.0 4.8 0.00 0.00 0.00 53 1011.0
20260505151315 23 165 0.0 4.8 0.00 0.00 0.00 55 1011.1
20260505150325 22 142 1.6 6.4 0.00 0.00 0.00 56 1011.2
20260505140324 17 122 0.0 3.2 0.00 0.00 0.00 72 1011.0
20260505124334 13 134 0.0 0.0 0.00 0.00 0.00 85 1010.8
20260505123322 13 127 0.0 0.0 0.00 0.00 0.00 83 1011.3
20260505122330 13 124 0.0 1.6 0.00 0.00 0.00 84 1011.5
20260505121339 13 124 0.0 1.6 0.00 0.00 0.00 86 1011.7
20260505120334 12 128 0.0 1.6 0.00 0.00 0.00 90 1011.7
20260505115325 11 127 0.0 1.6 0.00 0.00 0.00 91 1011.8
20260505114340 11 115 0.0 1.6 0.00 0.00 0.00 93 1011.7
20260505113329 11 146 0.0 0.0 0.00 0.00 0.00 93 1011.7
20260505112318 10 192 0.0 1.6 0.00 0.00 0.00 95 1011.8
20260505111325 10 285 0.0 0.0 0.00 0.00 0.00 95 1011.6
20260505110334 10 286 0.0 1.6 0.00 0.00 0.00 96 1011.5
20260505101322 8 188 0.0 0.0 0.00 0.00 0.00 94 1010.8
20260505100331 8 269 0.0 0.0 0.00 0.00 0.00 94 1010.6
20260505095319 8 269 0.0 0.0 0.00 0.00 0.00 94 1010.5
20260505094329 8 269 0.0 1.6 0.00 0.00 0.00 93 1010.6
20260505093337 8 269 0.0 0.0 0.00 0.00 0.00 94 1010.6
20260505092326 8 270 0.0 0.0 0.00 0.00 0.00 94 1010.4
20260505091313 8 270 0.0 0.0 0.00 0.00 0.00 93 1010.6
20260505090329 8 270 0.0 0.0 0.00 0.00 0.00 92 1010.5
20260505085338 8 270 0.0 0.0 0.00 0.00 0.00 92 1010.4
20260505084347 8 270 0.0 0.0 0.00 0.00 0.00 92 1010.5
20260505083314 8 270 0.0 0.0 0.00 0.00 0.00 92 1010.5
20260505082323 8 269 0.0 0.0 0.00 0.00 0.00 92 1010.7
20260505081313 8 270 0.0 0.0 0.00 0.00 0.00 91 1010.6
20260505080328 8 269 0.0 0.0 0.00 0.00 0.00 91 1010.7
20260505075336 8 270 0.0 0.0 0.00 0.00 0.00 91 1010.6
20260505074326 8 270 0.0 0.0 0.00 0.00 0.00 90 1010.7
20260505073343 8 270 0.0 0.0 0.00 0.00 0.00 91 1010.6
20260505072329 8 270 0.0 0.0 0.00 0.00 0.00 90 1010.6
20260505071319 8 270 0.0 0.0 0.00 0.00 0.00 89 1010.6
20260505070337 8 269 0.0 0.0 0.00 0.00 0.00 88 1010.6
20260505065325 8 270 0.0 0.0 0.00 0.00 0.00 88 1010.6
20260505064313 8 270 0.0 0.0 0.00 0.00 0.00 87 1010.6
20260505063348 8 270 0.0 1.6 0.00 0.00 0.00 87 1010.7
20260505062334 8 270 0.0 0.0 0.00 0.00 0.00 86 1010.7
20260505061329 9 270 0.0 0.0 0.00 0.00 0.00 86 1010.7
20260505060335 9 270 0.0 0.0 0.00 0.00 0.00 86 1010.7
20260505055316 9 269 0.0 0.0 0.00 0.00 0.00 85 1010.8
20260505054324 9 270 0.0 0.0 0.00 0.00 0.00 84 1010.9
20260505053312 9 270 0.0 0.0 0.00 0.00 0.00 83 1011.0
20260505052327 10 270 0.0 0.0 0.00 0.00 0.00 82 1011.0
20260505051315 10 269 0.0 0.0 0.00 0.00 0.00 81 1011.0
20260505050321 10 270 0.0 0.0 0.00 0.00 0.00 80 1011.1
20260505041326 11 136 0.0 0.0 0.00 0.00 0.00 79 1011.4
20260505040333 11 136 0.0 1.6 0.00 0.00 0.00 78 1011.4
20260505035316 11 136 0.0 0.0 0.00 0.00 0.00 78 1011.3
20260505034332 11 134 0.0 0.0 0.00 0.00 0.00 78 1011.4
20260505033323 11 134 0.0 1.6 0.00 0.00 0.00 78 1011.2